| time (UTC) | temp F | wind direction | speed MPH | gust MPH | rain 1hr in | rain 24hr in | rain mn in | humidity % | barometer mb |
| 20260904062546 | 71 | 0.0 | 0.0 | 0.02 | 0.37 | 0.31 | 93 | 1013.7 | |
| 20260904062046 | 71 | 0.0 | 0.0 | 0.03 | 0.37 | 0.31 | 93 | 1013.6 | |
| 20260904061558 | 71 | 0.0 | 0.0 | 0.04 | 0.37 | 0.31 | 93 | 1013.7 | |
| 20260904061046 | 71 | 0.0 | 0.0 | 0.04 | 0.36 | 0.30 | 93 | 1013.2 | |
| 20260904060546 | 71 | 0.0 | 0.0 | 0.05 | 0.36 | 0.30 | 93 | 1013.2 | |
| 20260904060106 | 71 | 0.0 | 0.0 | 0.07 | 0.36 | 0.30 | 93 | 1013.3 | |
| 20260904055546 | 72 | 0.0 | 0.0 | 0.08 | 0.36 | 0.30 | 93 | 1013.3 | |
| 20260904055046 | 72 | 0.0 | 0.0 | 0.10 | 0.36 | 0.30 | 93 | 1013.5 | |
| 20260904054613 | 72 | 0.0 | 0.0 | 0.13 | 0.36 | 0.30 | 93 | 1013.3 | |
| 20260904054050 | 72 | 0.0 | 0.0 | 0.16 | 0.36 | 0.30 | 92 | 1013.2 | |
| 20260904053546 | 72 | 0.0 | 0.0 | 0.19 | 0.36 | 0.30 | 92 | 1013.3 | |
| 20260904053104 | 72 | 0.0 | 0.0 | 0.22 | 0.36 | 0.30 | 92 | 1013.9 | |
| 20260904052547 | 72 | 0.0 | 0.0 | 0.25 | 0.35 | 0.29 | 92 | 1014.4 | |
| 20260904052047 | 72 | 0.0 | 0.0 | 0.27 | 0.34 | 0.28 | 92 | 1014.7 | |
| 20260904051607 | 72 | 0.0 | 0.0 | 0.27 | 0.33 | 0.27 | 91 | 1015.3 | |
| 20260904051046 | 72 | 0.0 | 0.0 | 0.26 | 0.32 | 0.26 | 91 | 1015.5 | |
| 20260904050548 | 72 | 0.0 | 0.0 | 0.25 | 0.31 | 0.25 | 91 | 1015.6 | |
| 20260904050106 | 73 | 0.0 | 0.0 | 0.23 | 0.29 | 0.23 | 91 | 1015.9 | |
| 20260904045547 | 73 | 0.0 | 0.0 | 0.22 | 0.28 | 0.22 | 91 | 1016.0 | |
| 20260904045047 | 73 | 0.0 | 0.0 | 0.20 | 0.26 | 0.20 | 90 | 1016.2 | |
| 20260904044601 | 73 | 0.0 | 0.0 | 0.17 | 0.23 | 0.17 | 90 | 1016.3 | |
| 20260904044046 | 73 | 0.0 | 0.0 | 0.14 | 0.20 | 0.14 | 90 | 1016.9 | |
| 20260904043554 | 74 | 0.0 | 0.0 | 0.11 | 0.17 | 0.11 | 89 | 1017.4 | |
| 20260904043104 | 74 | 0.0 | 0.0 | 0.08 | 0.14 | 0.08 | 89 | 1017.1 | |
| 20260904042547 | 75 | 0.0 | 0.0 | 0.04 | 0.10 | 0.04 | 89 | 1016.9 | |
| 20260904042046 | 76 | 0.0 | 0.0 | 0.01 | 0.07 | 0.01 | 90 | 1017.3 | |
| 20260904041603 | 76 | 0.0 | 0.0 | 0.00 | 0.06 | 0.00 | 90 | 1016.4 | |
| 20260904041046 | 77 | 0.0 | 0.0 | 0.00 | 0.06 | 0.00 | 91 | 1016.5 | |
| 20260904040551 | 77 | 0.0 | 0.0 | 0.00 | 0.06 | 0.00 | 91 | 1016.3 | |
| 20260904040108 | 78 | 0.0 | 0.0 | 0.00 | 0.06 | 0.00 | 92 | 1016.3 | |
| 20260904035548 | 78 | 0.0 | 0.0 | 0.01 | 0.06 | 0.06 | 92 | 1016.0 | |
| 20260904035046 | 78 | 0.0 | 0.0 | 0.03 | 0.06 | 0.06 | 91 | 1015.1 | |
| 20260904034603 | 78 | 0.0 | 0.0 | 0.06 | 0.06 | 0.06 | 91 | 1014.5 | |
| 20260904034046 | 78 | 0.0 | 0.0 | 0.06 | 0.06 | 0.06 | 91 | 1014.5 | |
| 20260904033557 | 78 | 0.0 | 0.0 | 0.06 | 0.06 | 0.06 | 91 | 1014.6 | |
| 20260904033104 | 78 | 0.0 | 0.0 | 0.06 | 0.06 | 0.06 | 91 | 1014.6 | |
| 20260904032545 | 78 | 0.0 | 0.0 | 0.06 | 0.06 | 0.06 | 91 | 1014.5 | |
| 20260904032046 | 79 | 0.0 | 0.0 | 0.06 | 0.06 | 0.06 | 90 | 1014.5 | |
| 20260904031603 | 79 | 0.0 | 0.0 | 0.06 | 0.06 | 0.06 | 90 | 1014.3 | |
| 20260904031046 | 79 | 0.0 | 0.0 | 0.06 | 0.06 | 0.06 | 90 | 1014.4 | |
| 20260904030545 | 79 | 0.0 | 0.0 | 0.06 | 0.06 | 0.06 | 90 | 1014.4 | |
| 20260904030100 | 79 | 0.0 | 0.0 | 0.06 | 0.06 | 0.06 | 90 | 1014.3 | |
| 20260904025549 | 79 | 0.0 | 0.0 | 0.05 | 0.05 | 0.05 | 90 | 1014.3 | |
| 20260904025046 | 79 | 0.0 | 0.0 | 0.03 | 0.03 | 0.03 | 89 | 1014.5 | |
| 20260904024611 | 80 | 0.0 | 0.0 | 0.00 | 0.00 | 0.00 | 90 | 1014.9 | |
| 20260904024046 | 80 | 0.0 | 0.0 | 0.00 | 0.00 | 0.00 | 90 | 1014.9 | |
| 20260904023546 | 80 | 0.0 | 0.0 | 0.00 | 0.00 | 0.00 | 90 | 1014.5 | |
| 20260904023104 | 80 | 0.0 | 0.0 | 0.00 | 0.00 | 0.00 | 90 | 1014.5 | |
| 20260904022546 | 80 | 0.0 | 0.0 | 0.00 | 0.00 | 0.00 | 89 | 1014.5 | |
| 20260904022047 | 80 | 0.0 | 0.0 | 0.00 | 0.00 | 0.00 | 89 | 1014.5 | |
| 20260904021607 | 80 | 0.0 | 0.0 | 0.00 | 0.00 | 0.00 | 89 | 1014.5 | |
| 20260904021050 | 80 | 0.0 | 0.0 | 0.00 | 0.00 | 0.00 | 89 | 1014.6 | |
| 20260904020546 | 80 | 0.0 | 0.0 | 0.00 | 0.00 | 0.00 | 89 | 1014.6 | |
| 20260904020118 | 80 | 0.0 | 0.0 | 0.00 | 0.00 | 0.00 | 89 | 1014.7 | |
| 20260904015546 | 80 | 0.0 | 0.0 | 0.00 | 0.00 | 0.00 | 89 | 1014.8 | |
| 20260904015049 | 80 | 0.0 | 0.0 | 0.00 | 0.00 | 0.00 | 88 | 1014.9 | |
| 20260904014624 | 80 | 0.0 | 0.0 | 0.00 | 0.00 | 0.00 | 88 | 1014.7 | |
| 20260904014046 | 80 | 0.0 | 0.0 | 0.00 | 0.00 | 0.00 | 88 | 1014.7 | |
| 20260904013546 | 80 | 0.0 | 0.0 | 0.00 | 0.00 | 0.00 | 88 | 1014.7 | |
| 20260904013057 | 81 | 0.0 | 0.0 | 0.00 | 0.00 | 0.00 | 88 | 1014.6 | |
| 20260904012545 | 81 | 0.0 | 0.0 | 0.00 | 0.00 | 0.00 | 88 | 1014.5 | |
| 20260904012046 | 81 | 0.0 | 0.0 | 0.00 | 0.00 | 0.00 | 88 | 1014.6 | |
| 20260904011609 | 81 | 0.0 | 0.0 | 0.00 | 0.00 | 0.00 | 87 | 1014.5 | |
| 20260904011046 | 81 | 0.0 | 0.0 | 0.00 | 0.00 | 0.00 | 87 | 1014.7 | |
| 20260904010546 | 81 | 0.0 | 0.0 | 0.00 | 0.00 | 0.00 | 87 | 1014.8 | |
| 20260904010104 | 81 | 0.0 | 0.0 | 0.00 | 0.00 | 0.00 | 87 | 1014.8 | |
| 20260904005547 | 81 | 0.0 | 0.0 | 0.00 | 0.00 | 0.00 | 86 | 1014.9 | |
| 20260904005046 | 81 | 0.0 | 0.0 | 0.00 | 0.00 | 0.00 | 86 | 1015.0 | |
| 20260904004603 | 82 | 0.0 | 0.0 | 0.00 | 0.00 | 0.00 | 86 | 1015.0 | |
| 20260904004046 | 82 | 0.0 | 0.0 | 0.00 | 0.00 | 0.00 | 86 | 1015.1 | |
| 20260904003546 | 82 | 0.0 | 0.0 | 0.00 | 0.00 | 0.00 | 85 | 1015.3 | |
| 20260904003100 | 82 | 0.0 | 0.0 | 0.00 | 0.00 | 0.00 | 85 | 1015.3 | |
| 20260904002546 | 82 | 0.0 | 0.0 | 0.00 | 0.00 | 0.00 | 85 | 1015.4 | |
| 20260904002051 | 82 | 0.0 | 0.0 | 0.00 | 0.00 | 0.00 | 85 | 1015.3 | |
| 20260904001602 | 83 | 0.0 | 0.0 | 0.00 | 0.00 | 0.00 | 84 | 1015.2 | |
| 20260904001046 | 83 | 0.0 | 0.0 | 0.00 | 0.00 | 0.00 | 84 | 1015.3 | |
| 20260904000546 | 83 | 0.0 | 0.0 | 0.00 | 0.00 | 0.00 | 84 | 1015.1 | |
| 20260904000125 | 83 | 0.0 | 0.0 | 0.00 | 0.00 | 0.00 | 83 | 1015.0 | |
| 20260903235548 | 83 | 0.0 | 0.0 | 0.00 | 0.00 | 0.00 | 83 | 1015.0 | |
| 20260903235056 | 84 | 0.0 | 0.0 | 0.00 | 0.00 | 0.00 | 83 | 1015.1 | |
| 20260903234603 | 84 | 0.0 | 0.0 | 0.00 | 0.00 | 0.00 | 82 | 1014.9 | |
| 20260903234046 | 84 | 0.0 | 0.0 | 0.00 | 0.00 | 0.00 | 82 | 1014.9 | |
| 20260903233547 | 84 | 0.0 | 0.0 | 0.00 | 0.00 | 0.00 | 81 | 1014.6 | |
| 20260903233102 | 84 | 0.0 | 0.0 | 0.00 | 0.00 | 0.00 | 81 | 1014.6 | |
| 20260903232546 | 85 | 0.0 | 0.0 | 0.00 | 0.00 | 0.00 | 81 | 1014.5 | |
| 20260903232052 | 85 | 0.0 | 0.0 | 0.00 | 0.00 | 0.00 | 81 | 1014.6 | |
| 20260903231600 | 85 | 0.0 | 0.0 | 0.00 | 0.00 | 0.00 | 80 | 1014.5 | |
| 20260903231042 | 85 | 0.0 | 0.0 | 0.00 | 0.00 | 0.00 | 80 | 1014.6 | |
| 20260903230546 | 85 | 0.0 | 0.0 | 0.00 | 0.00 | 0.00 | 80 | 1014.5 | |
| 20260903230056 | 85 | 0.0 | 0.0 | 0.00 | 0.00 | 0.00 | 80 | 1014.5 | |
| 20260903225547 | 86 | 0.0 | 0.0 | 0.00 | 0.00 | 0.00 | 80 | 1014.5 | |
| 20260903225046 | 86 | 0.0 | 0.0 | 0.00 | 0.00 | 0.00 | 79 | 1014.5 | |
| 20260903224627 | 86 | 0.0 | 0.0 | 0.00 | 0.00 | 0.00 | 79 | 1014.4 | |
| 20260903224047 | 86 | 0.0 | 0.0 | 0.00 | 0.00 | 0.00 | 79 | 1014.3 | |
| 20260903223546 | 86 | 0.0 | 0.0 | 0.00 | 0.00 | 0.00 | 79 | 1014.3 | |
| 20260903223101 | 86 | 0.0 | 0.0 | 0.00 | 0.00 | 0.00 | 78 | 1014.3 | |
| 20260903222546 | 86 | 0.0 | 0.0 | 0.00 | 0.00 | 0.00 | 78 | 1014.3 | |
| 20260903222047 | 86 | 0.0 | 0.0 | 0.00 | 0.00 | 0.00 | 78 | 1014.2 | |
| 20260903221605 | 86 | 0.0 | 0.0 | 0.00 | 0.00 | 0.00 | 78 | 1014.1 | |
| 20260903221047 | 87 | 0.0 | 0.0 | 0.00 | 0.00 | 0.00 | 74 | 1014.0 | |
| 20260903220546 | 87 | 0.0 | 0.0 | 0.00 | 0.00 | 0.00 | 73 | 1014.1 | |
| 20260903220108 | 87 | 0.0 | 0.0 | 0.00 | 0.00 | 0.00 | 73 | 1014.1 | |
| 20260903215548 | 87 | 0.0 | 0.0 | 0.00 | 0.00 | 0.00 | 72 | 1014.3 | |
| 20260903215046 | 87 | 0.0 | 0.0 | 0.00 | 0.00 | 0.00 | 73 | 1014.2 | |
| 20260903214613 | 87 | 0.0 | 0.0 | 0.00 | 0.00 | 0.00 | 73 | 1014.2 | |
| 20260903214046 | 87 | 0.0 | 0.0 | 0.00 | 0.00 | 0.00 | 73 | 1014.3 | |
| 20260903213546 | 87 | 0.0 | 0.0 | 0.00 | 0.00 | 0.00 | 72 | 1014.5 | |
| 20260903213113 | 87 | 0.0 | 0.0 | 0.00 | 0.00 | 0.00 | 71 | 1014.4 | |
| 20260903212547 | 87 | 0.0 | 0.0 | 0.00 | 0.00 | 0.00 | 73 | 1014.4 | |
| 20260903212047 | 87 | 0.0 | 0.0 | 0.00 | 0.00 | 0.00 | 71 | 1014.6 | |
| 20260903211610 | 87 | 0.0 | 0.0 | 0.00 | 0.00 | 0.00 | 71 | 1014.7 | |
| 20260903211046 | 87 | 0.0 | 0.0 | 0.00 | 0.00 | 0.00 | 72 | 1014.8 | |
| 20260903210546 | 87 | 0.0 | 0.0 | 0.00 | 0.00 | 0.00 | 71 | 1014.7 | |
| 20260903210128 | 87 | 0.0 | 0.0 | 0.00 | 0.00 | 0.00 | 72 | 1014.7 | |
| 20260903205546 | 88 | 0.0 | 0.0 | 0.00 | 0.01 | 0.00 | 71 | 1014.6 | |
| 20260903205046 | 88 | 0.0 | 0.0 | 0.00 | 0.01 | 0.00 | 72 | 1014.6 | |
| 20260903204603 | 88 | 0.0 | 0.0 | 0.00 | 0.01 | 0.00 | 70 | 1014.7 | |
| 20260903204049 | 88 | 0.0 | 0.0 | 0.00 | 0.01 | 0.00 | 74 | 1014.8 | |
| 20260903203546 | 88 | 0.0 | 0.0 | 0.00 | 0.01 | 0.00 | 71 | 1014.8 | |
| 20260903203113 | 88 | 0.0 | 0.0 | 0.00 | 0.01 | 0.00 | 73 | 1014.8 | |
| 20260903202549 | 88 | 0.0 | 0.0 | 0.00 | 0.01 | 0.00 | 72 | 1014.9 | |
| 20260903202047 | 88 | 0.0 | 0.0 | 0.00 | 0.01 | 0.00 | 71 | 1015.1 | |
| 20260903201558 | 88 | 0.0 | 0.0 | 0.00 | 0.01 | 0.00 | 71 | 1015.2 | |
| 20260903201059 | 89 | 0.0 | 0.0 | 0.00 | 0.01 | 0.00 | 69 | 1015.3 | |
| 20260903200546 | 89 | 0.0 | 0.0 | 0.00 | 0.01 | 0.00 | 69 | 1015.3 | |
| 20260903200104 | 90 | 0.0 | 0.0 | 0.00 | 0.01 | 0.00 | 68 | 1015.5 | |
| 20260903195550 | 89 | 0.0 | 0.0 | 0.00 | 0.11 | 0.00 | 71 | 1015.5 | |
| 20260903195046 | 88 | 0.0 | 0.0 | 0.00 | 0.11 | 0.00 | 73 | 1015.5 | |
| 20260903194603 | 89 | 0.0 | 0.0 | 0.00 | 0.11 | 0.00 | 71 | 1015.6 | |
| 20260903194049 | 89 | 0.0 | 0.0 | 0.00 | 0.11 | 0.00 | 70 | 1015.7 | |
| 20260903193546 | 89 | 0.0 | 0.0 | 0.00 | 0.11 | 0.00 | 72 | 1015.9 | |
| 20260903193107 | 88 | 0.0 | 0.0 | 0.00 | 0.11 | 0.00 | 73 | 1015.9 | |
| 20260903192559 | 88 | 0.0 | 0.0 | 0.00 | 0.11 | 0.00 | 70 | 1016.1 | |
| 20260903192047 | 88 | 0.0 | 0.0 | 0.00 | 0.11 | 0.00 | 70 | 1016.1 | |
| 20260903191606 | 89 | 0.0 | 0.0 | 0.00 | 0.11 | 0.00 | 70 | 1016.3 | |
| 20260903191046 | 88 | 0.0 | 0.0 | 0.00 | 0.11 | 0.00 | 73 | 1016.3 | |
| 20260903190547 | 88 | 0.0 | 0.0 | 0.00 | 0.11 | 0.00 | 72 | 1016.3 | |
| 20260903190104 | 86 | 0.0 | 0.0 | 0.00 | 0.11 | 0.00 | 74 | 1016.4 | |
| 20260903185546 | 85 | 0.0 | 0.0 | 0.00 | 0.11 | 0.00 | 74 | 1016.4 | |
| 20260903185047 | 85 | 0.0 | 0.0 | 0.00 | 0.11 | 0.00 | 76 | 1016.4 | |
| 20260903184606 | 84 | 0.0 | 0.0 | 0.00 | 0.11 | 0.00 | 77 | 1016.5 | |
| 20260903184047 | 84 | 0.0 | 0.0 | 0.00 | 0.11 | 0.00 | 76 | 1016.5 | |
| 20260903183546 | 85 | 0.0 | 0.0 | 0.00 | 0.11 | 0.00 | 75 | 1016.5 | |
| 20260903183059 | 85 | 0.0 | 0.0 | 0.00 | 0.11 | 0.00 | 76 | 1016.6 | |
| 20260903182549 | 84 | 0.0 | 0.0 | 0.00 | 0.11 | 0.00 | 77 | 1016.6 | |
| 20260903182046 | 84 | 0.0 | 0.0 | 0.00 | 0.11 | 0.00 | 77 | 1016.9 | |
| 20260903181609 | 84 | 0.0 | 0.0 | 0.00 | 0.11 | 0.00 | 77 | 1016.5 | |
| 20260903181046 | 84 | 0.0 | 0.0 | 0.00 | 0.11 | 0.00 | 78 | 1016.3 | |
| 20260903180547 | 84 | 0.0 | 0.0 | 0.00 | 0.11 | 0.00 | 77 | 1016.6 | |
| 20260903180107 | 84 | 0.0 | 0.0 | 0.00 | 0.11 | 0.00 | 76 | 1016.8 | |
| 20260903175546 | 84 | 0.0 | 0.0 | 0.00 | 0.11 | 0.00 | 77 | 1017.0 | |
| 20260903175046 | 84 | 0.0 | 0.0 | 0.00 | 0.11 | 0.00 | 76 | 1017.2 | |
| 20260903174603 | 84 | 0.0 | 0.0 | 0.00 | 0.11 | 0.00 | 78 | 1017.4 | |
| 20260903174050 | 83 | 0.0 | 0.0 | 0.00 | 0.11 | 0.00 | 77 | 1017.3 | |
| 20260903173546 | 84 | 0.0 | 0.0 | 0.00 | 0.11 | 0.00 | 75 | 1017.3 | |
| 20260903173106 | 84 | 0.0 | 0.0 | 0.00 | 0.11 | 0.00 | 75 | 1017.4 | |
| 20260903172548 | 85 | 0.0 | 0.0 | 0.00 | 0.11 | 0.00 | 75 | 1017.4 | |
| 20260903172047 | 85 | 0.0 | 0.0 | 0.00 | 0.11 | 0.00 | 75 | 1017.5 | |
| 20260903171617 | 85 | 0.0 | 0.0 | 0.00 | 0.11 | 0.00 | 75 | 1017.8 | |
| 20260903171046 | 85 | 0.0 | 0.0 | 0.00 | 0.11 | 0.00 | 75 | 1017.8 | |
| 20260903170546 | 85 | 0.0 | 0.0 | 0.00 | 0.11 | 0.00 | 73 | 1018.0 | |
| 20260903170107 | 85 | 0.0 | 0.0 | 0.00 | 0.11 | 0.00 | 76 | 1018.0 | |
| 20260903165556 | 84 | 0.0 | 0.0 | 0.00 | 0.11 | 0.00 | 74 | 1018.0 | |
| 20260903165046 | 85 | 0.0 | 0.0 | 0.00 | 0.11 | 0.00 | 77 | 1018.1 | |
| 20260903164623 | 84 | 0.0 | 0.0 | 0.00 | 0.11 | 0.00 | 75 | 1018.0 | |
| 20260903164046 | 84 | 0.0 | 0.0 | 0.00 | 0.11 | 0.00 | 76 | 1018.2 | |
| 20260903163547 | 84 | 0.0 | 0.0 | 0.00 | 0.11 | 0.00 | 77 | 1018.3 | |
| 20260903163101 | 84 | 0.0 | 0.0 | 0.00 | 0.11 | 0.00 | 76 | 1018.2 | |
| 20260903162555 | 84 | 0.0 | 0.0 | 0.00 | 0.11 | 0.00 | 78 | 1018.1 | |
| 20260903162047 | 83 | 0.0 | 0.0 | 0.00 | 0.11 | 0.00 | 78 | 1018.2 | |
| 20260903161605 | 83 | 0.0 | 0.0 | 0.00 | 0.11 | 0.00 | 76 | 1018.1 | |
| 20260903161049 | 83 | 0.0 | 0.0 | 0.00 | 0.11 | 0.00 | 78 | 1017.9 | |
| 20260903160546 | 83 | 0.0 | 0.0 | 0.00 | 0.11 | 0.00 | 78 | 1018.0 | |
| 20260903160129 | 83 | 0.0 | 0.0 | 0.00 | 0.11 | 0.00 | 79 | 1018.0 | |
| 20260903155552 | 82 | 0.0 | 0.0 | 0.00 | 0.11 | 0.00 | 81 | 1018.1 | |
| 20260903155049 | 81 | 0.0 | 0.0 | 0.00 | 0.11 | 0.00 | 82 | 1018.2 | |
| 20260903154611 | 81 | 0.0 | 0.0 | 0.00 | 0.11 | 0.00 | 82 | 1018.2 | |
| 20260903154053 | 81 | 0.0 | 0.0 | 0.00 | 0.11 | 0.00 | 83 | 1018.2 | |
| 20260903153550 | 81 | 0.0 | 0.0 | 0.00 | 0.11 | 0.00 | 82 | 1018.0 | |
| 20260903153112 | 80 | 0.0 | 0.0 | 0.00 | 0.11 | 0.00 | 83 | 1018.2 | |
| 20260903152552 | 80 | 0.0 | 0.0 | 0.00 | 0.11 | 0.00 | 86 | 1018.2 | |
| 20260903152047 | 80 | 0.0 | 0.0 | 0.00 | 0.11 | 0.00 | 86 | 1018.4 | |
| 20260903151608 | 79 | 0.0 | 0.0 | 0.00 | 0.11 | 0.00 | 86 | 1018.3 | |
| 20260903151046 | 79 | 0.0 | 0.0 | 0.00 | 0.11 | 0.00 | 86 | 1018.4 | |
| 20260903150549 | 79 | 0.0 | 0.0 | 0.00 | 0.11 | 0.00 | 86 | 1018.4 | |
| 20260903150113 | 79 | 0.0 | 0.0 | 0.00 | 0.11 | 0.00 | 85 | 1018.4 | |
| 20260903145553 | 78 | 0.0 | 0.0 | 0.00 | 0.11 | 0.00 | 86 | 1018.4 | |
| 20260903145059 | 78 | 0.0 | 0.0 | 0.00 | 0.11 | 0.00 | 89 | 1018.2 | |
| 20260903144607 | 78 | 0.0 | 0.0 | 0.00 | 0.11 | 0.00 | 88 | 1018.1 | |
| 20260903144052 | 77 | 0.0 | 0.0 | 0.00 | 0.11 | 0.00 | 90 | 1018.2 | |
| 20260903143550 | 77 | 0.0 | 0.0 | 0.00 | 0.11 | 0.00 | 90 | 1017.9 | |
| 20260903143112 | 76 | 0.0 | 0.0 | 0.00 | 0.11 | 0.00 | 91 | 1018.1 | |
| 20260903142549 | 76 | 0.0 | 0.0 | 0.00 | 0.11 | 0.00 | 92 | 1018.0 | |
| 20260903142051 | 76 | 0.0 | 0.0 | 0.00 | 0.11 | 0.00 | 93 | 1018.0 | |
| 20260903141613 | 76 | 0.0 | 0.0 | 0.00 | 0.11 | 0.00 | 93 | 1018.1 | |
| 20260903141046 | 76 | 0.0 | 0.0 | 0.00 | 0.11 | 0.00 | 93 | 1018.0 | |
| 20260903140547 | 75 | 0.0 | 0.0 | 0.00 | 0.11 | 0.00 | 93 | 1018.0 | |
| 20260903140109 | 75 | 0.0 | 0.0 | 0.00 | 0.11 | 0.00 | 93 | 1018.0 | |
| 20260903135550 | 75 | 0.0 | 0.0 | 0.00 | 0.11 | 0.00 | 94 | 1018.2 | |
| 20260903135051 | 75 | 0.0 | 0.0 | 0.00 | 0.11 | 0.00 | 95 | 1018.3 | |
| 20260903134601 | 75 | 0.0 | 0.0 | 0.00 | 0.11 | 0.00 | 95 | 1018.3 | |
| 20260903134051 | 75 | 0.0 | 0.0 | 0.00 | 0.11 | 0.00 | 95 | 1018.3 | |
| 20260903133550 | 75 | 0.0 | 0.0 | 0.00 | 0.11 | 0.00 | 95 | 1018.1 | |
| 20260903133100 | 75 | 0.0 | 0.0 | 0.00 | 0.11 | 0.00 | 96 | 1018.2 | |
| 20260903132548 | 74 | 0.0 | 0.0 | 0.00 | 0.11 | 0.00 | 96 | 1018.3 | |
| 20260903132046 | 74 | 0.0 | 0.0 | 0.00 | 0.11 | 0.00 | 96 | 1018.3 | |
| 20260903131557 | 74 | 0.0 | 0.0 | 0.00 | 0.11 | 0.00 | 96 | 1018.4 | |
| 20260903131047 | 73 | 0.0 | 0.0 | 0.00 | 0.11 | 0.00 | 96 | 1018.7 | |
| 20260903130547 | 73 | 0.0 | 0.0 | 0.00 | 0.11 | 0.00 | 96 | 1018.7 | |
| 20260903130056 | 73 | 0.0 | 0.0 | 0.00 | 0.11 | 0.00 | 96 | 1018.8 | |
| 20260903125546 | 73 | 0.0 | 0.0 | 0.00 | 0.11 | 0.00 | 96 | 1018.8 | |
| 20260903125102 | 73 | 0.0 | 0.0 | 0.00 | 0.11 | 0.00 | 96 | 1018.8 | |
| 20260903124606 | 73 | 0.0 | 0.0 | 0.00 | 0.11 | 0.00 | 96 | 1018.9 | |
| 20260903124046 | 73 | 0.0 | 0.0 | 0.00 | 0.11 | 0.00 | 96 | 1019.0 | |
| 20260903123546 | 73 | 0.0 | 0.0 | 0.00 | 0.11 | 0.00 | 96 | 1019.0 | |
| 20260903123106 | 72 | 0.0 | 0.0 | 0.00 | 0.11 | 0.00 | 96 | 1019.0 | |
| 20260903122547 | 72 | 0.0 | 0.0 | 0.00 | 0.11 | 0.00 | 96 | 1018.9 | |
| 20260903122059 | 72 | 0.0 | 0.0 | 0.00 | 0.11 | 0.00 | 96 | 1018.9 | |
| 20260903121608 | 72 | 0.0 | 0.0 | 0.00 | 0.11 | 0.00 | 95 | 1018.9 | |
| 20260903121046 | 72 | 0.0 | 0.0 | 0.00 | 0.11 | 0.00 | 95 | 1019.1 | |
| 20260903120546 | 72 | 0.0 | 0.0 | 0.00 | 0.11 | 0.00 | 95 | 1018.9 | |
| 20260903120107 | 72 | 0.0 | 0.0 | 0.00 | 0.11 | 0.00 | 95 | 1018.9 | |
| 20260903115545 | 72 | 0.0 | 0.0 | 0.00 | 0.11 | 0.00 | 95 | 1018.8 | |
| 20260903115056 | 72 | 0.0 | 0.0 | 0.00 | 0.11 | 0.00 | 96 | 1018.7 | |
| 20260903114607 | 72 | 0.0 | 0.0 | 0.00 | 0.11 | 0.00 | 96 | 1018.2 | |
| 20260903114045 | 72 | 0.0 | 0.0 | 0.00 | 0.11 | 0.00 | 95 | 1018.2 | |
| 20260903113546 | 72 | 0.0 | 0.0 | 0.00 | 0.11 | 0.00 | 96 | 1018.0 | |
| 20260903113057 | 72 | 0.0 | 0.0 | 0.00 | 0.11 | 0.00 | 96 | 1018.2 | |
| 20260903112547 | 72 | 0.0 | 0.0 | 0.00 | 0.11 | 0.00 | 95 | 1018.0 | |
| 20260903112046 | 72 | 0.0 | 0.0 | 0.00 | 0.11 | 0.00 | 95 | 1017.6 | |
| 20260903111604 | 72 | 0.0 | 0.0 | 0.00 | 0.11 | 0.00 | 95 | 1017.7 | |
| 20260903111048 | 72 | 0.0 | 0.0 | 0.00 | 0.11 | 0.00 | 95 | 1017.7 | |
| 20260903110546 | 72 | 0.0 | 0.0 | 0.00 | 0.11 | 0.00 | 95 | 1017.6 | |
| 20260903105551 | 72 | 0.0 | 0.0 | 0.00 | 0.11 | 0.00 | 95 | 1017.4 | |
| 20260903105047 | 72 | 0.0 | 0.0 | 0.00 | 0.11 | 0.00 | 95 | 1017.1 | |
| 20260903104607 | 72 | 0.0 | 0.0 | 0.00 | 0.11 | 0.00 | 95 | 1017.1 | |
| 20260903104046 | 72 | 0.0 | 0.0 | 0.00 | 0.11 | 0.00 | 95 | 1017.0 | |
| 20260903103546 | 72 | 0.0 | 0.0 | 0.00 | 0.11 | 0.00 | 95 | 1016.9 | |
| 20260903103110 | 72 | 0.0 | 0.0 | 0.00 | 0.11 | 0.00 | 95 | 1016.8 | |
| 20260903102546 | 72 | 0.0 | 0.0 | 0.00 | 0.11 | 0.00 | 95 | 1016.8 | |
| 20260903102058 | 72 | 0.0 | 0.0 | 0.00 | 0.11 | 0.00 | 95 | 1016.8 | |
| 20260903101611 | 72 | 0.0 | 0.0 | 0.00 | 0.11 | 0.00 | 95 | 1016.8 | |
| 20260903101046 | 72 | 0.0 | 0.0 | 0.00 | 0.11 | 0.00 | 95 | 1016.8 | |
| 20260903100546 | 72 | 0.0 | 0.0 | 0.00 | 0.11 | 0.00 | 95 | 1016.7 | |
| 20260903100109 | 72 | 0.0 | 0.0 | 0.00 | 0.11 | 0.00 | 95 | 1016.7 | |
| 20260903095545 | 72 | 0.0 | 0.0 | 0.00 | 0.11 | 0.00 | 95 | 1016.8 | |
| 20260903095046 | 72 | 0.0 | 0.0 | 0.00 | 0.11 | 0.00 | 95 | 1016.8 | |
| 20260903094629 | 72 | 0.0 | 0.0 | 0.00 | 0.11 | 0.00 | 95 | 1016.9 | |
| 20260903094047 | 72 | 0.0 | 0.0 | 0.00 | 0.11 | 0.00 | 95 | 1016.8 | |
| 20260903093552 | 72 | 0.0 | 0.0 | 0.00 | 0.11 | 0.00 | 95 | 1016.8 | |
| 20260903093112 | 72 | 0.0 | 0.0 | 0.00 | 0.11 | 0.00 | 95 | 1016.9 | |
| 20260903092546 | 72 | 0.0 | 0.0 | 0.00 | 0.11 | 0.00 | 95 | 1016.9 | |
| 20260903092046 | 72 | 0.0 | 0.0 | 0.00 | 0.11 | 0.00 | 95 | 1016.8 | |
| 20260903091602 | 72 | 0.0 | 0.0 | 0.00 | 0.11 | 0.00 | 95 | 1016.8 | |
| 20260903091058 | 72 | 0.0 | 0.0 | 0.00 | 0.11 | 0.00 | 95 | 1016.9 | |
| 20260903090547 | 72 | 0.0 | 0.0 | 0.00 | 0.11 | 0.00 | 95 | 1016.9 | |
| 20260903090107 | 72 | 0.0 | 0.0 | 0.00 | 0.11 | 0.00 | 95 | 1016.8 | |
| 20260903085548 | 72 | 0.0 | 0.0 | 0.00 | 0.11 | 0.00 | 95 | 1017.0 | |
| 20260903085046 | 72 | 0.0 | 0.0 | 0.00 | 0.11 | 0.00 | 95 | 1016.8 | |
| 20260903084604 | 72 | 0.0 | 0.0 | 0.00 | 0.11 | 0.00 | 95 | 1016.8 | |
| 20260903084049 | 72 | 0.0 | 0.0 | 0.00 | 0.11 | 0.00 | 95 | 1017.0 | |
| 20260903083546 | 72 | 0.0 | 0.0 | 0.00 | 0.11 | 0.00 | 95 | 1016.9 | |
| 20260903083103 | 72 | 0.0 | 0.0 | 0.00 | 0.11 | 0.00 | 95 | 1017.0 | |
| 20260903082548 | 72 | 0.0 | 0.0 | 0.00 | 0.11 | 0.00 | 95 | 1016.8 | |
| 20260903082048 | 72 | 0.0 | 0.0 | 0.00 | 0.11 | 0.00 | 95 | 1016.8 | |
| 20260903081606 | 72 | 0.0 | 0.0 | 0.00 | 0.11 | 0.00 | 95 | 1016.8 | |
| 20260903081050 | 72 | 0.0 | 0.0 | 0.00 | 0.11 | 0.00 | 95 | 1016.8 | |
| 20260903080546 | 72 | 0.0 | 0.0 | 0.00 | 0.11 | 0.00 | 95 | 1016.7 | |
| 20260903080105 | 72 | 0.0 | 0.0 | 0.00 | 0.11 | 0.00 | 95 | 1016.8 | |
| 20260903075550 | 72 | 0.0 | 0.0 | 0.00 | 0.11 | 0.00 | 95 | 1016.7 | |
| 20260903075046 | 72 | 0.0 | 0.0 | 0.00 | 0.11 | 0.00 | 95 | 1016.5 | |
| 20260903074605 | 72 | 0.0 | 0.0 | 0.00 | 0.11 | 0.00 | 95 | 1016.5 | |
| 20260903074049 | 72 | 0.0 | 0.0 | 0.00 | 0.11 | 0.00 | 95 | 1016.5 | |
| 20260903073546 | 72 | 0.0 | 0.0 | 0.00 | 0.11 | 0.00 | 95 | 1016.5 | |
| 20260903073107 | 72 | 0.0 | 0.0 | 0.00 | 0.11 | 0.00 | 95 | 1016.4 | |
| 20260903072547 | 72 | 0.0 | 0.0 | 0.00 | 0.11 | 0.00 | 95 | 1016.5 | |
| 20260903072047 | 72 | 0.0 | 0.0 | 0.00 | 0.11 | 0.00 | 95 | 1016.5 | |
| 20260903071611 | 72 | 0.0 | 0.0 | 0.00 | 0.11 | 0.00 | 95 | 1016.5 | |
| 20260903071046 | 72 | 0.0 | 0.0 | 0.00 | 0.11 | 0.00 | 95 | 1016.5 | |
| 20260903070619 | 72 | 0.0 | 0.0 | 0.00 | 0.11 | 0.00 | 95 | 1016.5 | |
| 20260903065547 | 72 | 0.0 | 0.0 | 0.00 | 0.11 | 0.00 | 95 | 1016.5 | |
| 20260903065045 | 72 | 0.0 | 0.0 | 0.00 | 0.11 | 0.00 | 95 | 1016.7 | |
| 20260903064602 | 72 | 0.0 | 0.0 | 0.00 | 0.11 | 0.00 | 95 | 1016.6 | |
| 20260903064047 | 72 | 0.0 | 0.0 | 0.00 | 0.11 | 0.00 | 95 | 1016.6 | |
| 20260903063555 | 72 | 0.0 | 0.0 | 0.00 | 0.11 | 0.00 | 95 | 1016.8 | |
| 20260903063124 | 72 | 0.0 | 0.0 | 0.00 | 0.11 | 0.00 | 95 | 1016.9 |